Time,TemperatureF,DewpointF,PressureIn,WindDirection,WindDirectionDegrees,WindSpeedMPH,WindSpeedGustMPH,Humidity,HourlyPrecipIn,Conditions,Clouds,dailyrainin,SoftwareType,DateUTC
2013-02-07 00:00:00,32.9,25.5,30.25,ENE,68,0.0,2.0,74,0.00,,SKC,0.00,VWS V14.01,2013-02-07 05:00:00,
2013-02-07 00:05:00,32.9,25.9,30.25,ENE,69,0.0,1.0,75,0.00,,SKC,0.00,VWS V14.01,2013-02-07 05:05:00,
2013-02-07 00:10:00,32.2,25.5,30.25,ENE,68,0.0,1.0,76,0.00,,SKC,0.00,VWS V14.01,2013-02-07 05:10:00,
2013-02-07 00:15:00,31.8,25.4,30.26,ENE,68,0.0,1.0,77,0.00,,SKC,0.00,VWS V14.01,2013-02-07 05:15:00,
2013-02-07 00:20:00,31.8,25.1,30.25,ENE,68,0.0,1.0,76,0.00,,SKC,0.00,VWS V14.01,2013-02-07 05:20:00,
2013-02-07 00:25:00,32.0,25.3,30.26,ENE,68,0.0,1.0,76,0.00,,SKC,0.00,VWS V14.01,2013-02-07 05:25:00,
2013-02-07 00:30:00,31.8,25.4,30.26,ENE,68,0.0,1.0,77,0.00,,SKC,0.00,VWS V14.01,2013-02-07 05:30:00,
2013-02-07 00:35:00,31.8,25.4,30.26,ENE,68,0.0,0.0,77,0.00,,SKC,0.00,VWS V14.01,2013-02-07 05:35:00,
2013-02-07 00:40:00,31.8,25.4,30.25,ENE,68,0.0,0.0,77,0.00,,SKC,0.00,VWS V14.01,2013-02-07 05:40:00,
2013-02-07 00:45:00,31.7,25.6,30.25,ENE,68,0.0,0.0,78,0.00,,SKC,0.00,VWS V14.01,2013-02-07 05:45:00,
2013-02-07 00:50:00,31.5,25.4,30.26,ENE,68,0.0,0.0,78,0.00,,SKC,0.00,VWS V14.01,2013-02-07 05:50:00,
2013-02-07 00:55:00,31.2,25.5,30.25,ENE,69,0.0,0.0,79,0.00,,SKC,0.00,VWS V14.01,2013-02-07 05:55:00,
2013-02-07 01:00:00,31.0,25.3,30.25,ENE,68,0.0,0.0,79,0.00,,SKC,0.00,VWS V14.01,2013-02-07 06:00:00,
2013-02-07 01:05:00,31.0,25.6,30.25,ENE,68,0.0,0.0,80,0.00,,SKC,0.00,VWS V14.01,2013-02-07 06:05:00,
2013-02-07 01:10:00,31.0,25.3,30.25,ENE,68,0.0,0.0,79,0.00,,SKC,0.00,VWS V14.01,2013-02-07 06:10:00,
2013-02-07 01:15:00,30.9,25.5,30.25,ENE,68,0.0,0.0,80,0.00,,SKC,0.00,VWS V14.01,2013-02-07 06:15:00,
2013-02-07 01:20:00,30.8,25.4,30.25,ENE,68,0.0,0.0,80,0.00,,SKC,0.00,VWS V14.01,2013-02-07 06:20:00,
2013-02-07 01:25:00,30.8,25.7,30.25,ENE,70,0.0,1.0,81,0.00,,SKC,0.00,VWS V14.01,2013-02-07 06:25:00,
2013-02-07 01:30:00,30.8,25.7,30.25,ENE,70,0.0,1.0,81,0.00,,SKC,0.00,VWS V14.01,2013-02-07 06:30:00,
2013-02-07 01:35:00,30.8,25.4,30.25,ENE,68,0.0,0.0,80,0.00,,SKC,0.00,VWS V14.01,2013-02-07 06:35:00,
2013-02-07 01:40:00,30.7,25.6,30.25,ENE,68,0.0,0.0,81,0.00,,SKC,0.00,VWS V14.01,2013-02-07 06:40:00,
2013-02-07 01:45:00,30.7,25.6,30.25,ENE,68,0.0,0.0,81,0.00,,SKC,0.00,VWS V14.01,2013-02-07 06:45:00,
2013-02-07 01:50:00,30.5,25.4,30.26,ENE,68,0.0,0.0,81,0.00,,SKC,0.00,VWS V14.01,2013-02-07 06:50:00,
2013-02-07 01:55:00,30.4,25.3,30.26,ENE,69,0.0,0.0,81,0.00,,SKC,0.00,VWS V14.01,2013-02-07 06:55:00,
2013-02-07 02:00:00,30.3,25.5,30.25,ENE,68,0.0,0.0,82,0.00,,SKC,0.00,VWS V14.01,2013-02-07 07:00:00,
2013-02-07 02:05:00,30.4,25.3,30.25,ENE,69,0.0,0.0,81,0.00,,SKC,0.00,VWS V14.01,2013-02-07 07:05:00,
2013-02-07 02:10:00,30.5,25.4,30.25,ENE,68,0.0,0.0,81,0.00,,SKC,0.00,VWS V14.01,2013-02-07 07:10:00,
2013-02-07 02:15:00,30.5,25.7,30.25,ENE,68,0.0,0.0,82,0.00,,SKC,0.00,VWS V14.01,2013-02-07 07:15:00,
2013-02-07 02:20:00,30.4,25.6,30.25,ENE,69,0.0,0.0,82,0.00,,SKC,0.00,VWS V14.01,2013-02-07 07:20:00,
2013-02-07 02:25:00,30.2,25.4,30.25,ENE,69,0.0,0.0,82,0.00,,SKC,0.00,VWS V14.01,2013-02-07 07:25:00,
2013-02-07 02:30:00,30.1,25.6,30.25,ENE,68,0.0,0.0,83,0.00,,SKC,0.00,VWS V14.01,2013-02-07 07:30:00,
2013-02-07 02:35:00,30.3,25.8,30.25,ENE,69,0.0,0.0,83,0.00,,SKC,0.00,VWS V14.01,2013-02-07 07:35:00,
2013-02-07 02:40:00,30.3,25.8,30.25,ENE,68,0.0,0.0,83,0.00,,SKC,0.00,VWS V14.01,2013-02-07 07:40:00,
2013-02-07 02:45:00,30.4,25.9,30.25,ENE,68,0.0,0.0,83,0.00,,SKC,0.00,VWS V14.01,2013-02-07 07:45:00,
2013-02-07 02:50:00,30.2,25.7,30.25,ENE,69,1.0,1.0,83,0.00,,SKC,0.00,VWS V14.01,2013-02-07 07:50:00,
2013-02-07 02:55:00,30.2,25.7,30.25,ENE,68,0.0,2.0,83,0.00,,SKC,0.00,VWS V14.01,2013-02-07 07:55:00,
2013-02-07 03:00:00,30.2,25.7,30.25,ENE,68,0.0,2.0,83,0.00,,SKC,0.00,VWS V14.01,2013-02-07 08:00:00,
2013-02-07 03:05:00,30.3,25.8,30.25,ENE,68,0.0,0.0,83,0.00,,SKC,0.00,VWS V14.01,2013-02-07 08:05:00,
2013-02-07 03:10:00,30.4,25.9,30.25,ENE,68,0.0,0.0,83,0.00,,SKC,0.00,VWS V14.01,2013-02-07 08:10:00,
2013-02-07 03:15:00,30.4,26.1,30.25,ENE,68,0.0,1.0,84,0.00,,SKC,0.00,VWS V14.01,2013-02-07 08:15:00,
2013-02-07 03:20:00,30.3,26.1,30.25,ENE,69,0.0,1.0,84,0.00,,SKC,0.00,VWS V14.01,2013-02-07 08:20:00,
2013-02-07 03:25:00,30.4,26.1,30.25,ENE,70,0.0,1.0,84,0.00,,SKC,0.00,VWS V14.01,2013-02-07 08:25:00,
2013-02-07 03:30:00,30.4,26.1,30.25,ENE,69,0.0,1.0,84,0.00,,SKC,0.00,VWS V14.01,2013-02-07 08:30:00,
2013-02-07 03:35:00,30.4,26.4,30.25,South,172,0.0,1.0,85,0.00,,SKC,0.00,VWS V14.01,2013-02-07 08:35:00,
2013-02-07 03:40:00,30.5,26.2,30.26,South,172,0.0,1.0,84,0.00,,SKC,0.00,VWS V14.01,2013-02-07 08:40:00,
2013-02-07 03:45:00,30.6,26.4,30.26,South,172,0.0,1.0,84,0.00,,SKC,0.00,VWS V14.01,2013-02-07 08:45:00,
2013-02-07 03:50:00,30.4,26.1,30.26,South,172,0.0,1.0,84,0.00,,SKC,0.00,VWS V14.01,2013-02-07 08:50:00,
2013-02-07 03:55:00,30.3,26.3,30.27,South,172,0.0,0.0,85,0.00,,SKC,0.00,VWS V14.01,2013-02-07 08:55:00,
2013-02-07 04:00:00,30.4,26.4,30.27,South,172,0.0,0.0,85,0.00,,SKC,0.00,VWS V14.01,2013-02-07 09:00:00,
2013-02-07 04:05:00,30.5,26.5,30.28,South,172,0.0,0.0,85,0.00,,SKC,0.00,VWS V14.01,2013-02-07 09:05:00,
2013-02-07 04:10:00,30.6,26.6,30.28,South,172,0.0,0.0,85,0.00,,SKC,0.00,VWS V14.01,2013-02-07 09:10:00,
2013-02-07 04:15:00,30.9,26.6,30.28,South,172,0.0,1.0,84,0.00,,SKC,0.00,VWS V14.01,2013-02-07 09:15:00,
2013-02-07 04:20:00,31.1,26.8,30.29,East,85,0.0,1.0,84,0.00,,SKC,0.00,VWS V14.01,2013-02-07 09:20:00,
2013-02-07 04:25:00,31.1,26.5,30.29,East,84,0.0,1.0,83,0.00,,SKC,0.00,VWS V14.01,2013-02-07 09:25:00,
2013-02-07 04:30:00,30.9,26.4,30.29,East,84,0.0,1.0,83,0.00,,SKC,0.00,VWS V14.01,2013-02-07 09:30:00,
2013-02-07 04:35:00,30.8,26.3,30.29,East,85,0.0,0.0,83,0.00,,SKC,0.00,VWS V14.01,2013-02-07 09:35:00,
2013-02-07 04:40:00,30.8,26.5,30.29,East,85,0.0,0.0,84,0.00,,SKC,0.00,VWS V14.01,2013-02-07 09:40:00,
2013-02-07 04:45:00,30.9,26.6,30.29,East,84,0.0,1.0,84,0.00,,SKC,0.00,VWS V14.01,2013-02-07 09:45:00,
2013-02-07 04:50:00,31.1,26.8,30.29,East,85,0.0,1.0,84,0.00,,SKC,0.00,VWS V14.01,2013-02-07 09:50:00,
2013-02-07 04:55:00,31.1,26.8,30.29,East,85,0.0,1.0,84,0.00,,SKC,0.00,VWS V14.01,2013-02-07 09:55:00,
2013-02-07 05:00:00,31.2,26.9,30.29,East,84,0.0,1.0,84,0.00,,SKC,0.00,VWS V14.01,2013-02-07 10:00:00,
2013-02-07 05:05:00,31.2,26.6,30.29,East,85,0.0,0.0,83,0.00,,SKC,0.00,VWS V14.01,2013-02-07 10:05:00,
2013-02-07 05:10:00,31.6,26.8,30.29,SSE,160,0.0,1.0,82,0.00,,SKC,0.00,VWS V14.01,2013-02-07 10:10:00,
2013-02-07 05:15:00,32.1,26.9,30.29,SSE,161,0.0,1.0,81,0.00,,SKC,0.00,VWS V14.01,2013-02-07 10:15:00,
2013-02-07 05:20:00,32.0,26.8,30.29,East,79,2.0,4.0,81,0.00,,SKC,0.00,VWS V14.01,2013-02-07 10:20:00,
2013-02-07 05:25:00,32.6,26.8,30.29,NE,51,0.0,4.0,79,0.00,,SKC,0.00,VWS V14.01,2013-02-07 10:25:00,
2013-02-07 05:30:00,33.3,27.2,30.29,ESE,121,0.0,4.0,78,0.00,,SKC,0.00,VWS V14.01,2013-02-07 10:30:00,
2013-02-07 05:35:00,34.3,27.2,30.28,East,84,0.0,2.0,75,0.00,,SKC,0.00,VWS V14.01,2013-02-07 10:35:00,
2013-02-07 05:40:00,34.4,27.6,30.28,East,85,0.0,2.0,76,0.00,,SKC,0.00,VWS V14.01,2013-02-07 10:40:00,
2013-02-07 05:45:00,34.0,27.6,30.28,East,85,0.0,2.0,77,0.00,,SKC,0.00,VWS V14.01,2013-02-07 10:45:00,
2013-02-07 05:50:00,33.9,27.5,30.28,East,84,0.0,2.0,77,0.00,,SKC,0.00,VWS V14.01,2013-02-07 10:50:00,
2013-02-07 05:55:00,33.8,27.7,30.28,East,84,0.0,2.0,78,0.00,,SKC,0.00,VWS V14.01,2013-02-07 10:55:00,
2013-02-07 06:00:00,33.7,27.6,30.28,East,85,0.0,2.0,78,0.00,,SKC,0.00,VWS V14.01,2013-02-07 11:00:00,
2013-02-07 06:05:00,33.7,27.3,30.28,East,85,0.0,1.0,77,0.00,,SKC,0.00,VWS V14.01,2013-02-07 11:05:00,
2013-02-07 06:10:00,33.9,27.8,30.27,East,84,1.0,1.0,78,0.00,,SKC,0.00,VWS V14.01,2013-02-07 11:10:00,
2013-02-07 06:15:00,34.0,26.6,30.27,East,84,1.0,1.0,74,0.00,,SKC,0.00,VWS V14.01,2013-02-07 11:15:00,
2013-02-07 06:20:00,34.8,27.7,30.26,East,84,0.0,1.0,75,0.00,,SKC,0.00,VWS V14.01,2013-02-07 11:20:00,
2013-02-07 06:25:00,34.5,28.0,30.26,East,84,0.0,1.0,77,0.00,,SKC,0.00,VWS V14.01,2013-02-07 11:25:00,
2013-02-07 06:30:00,34.0,27.9,30.26,East,84,0.0,1.0,78,0.00,,SKC,0.00,VWS V14.01,2013-02-07 11:30:00,
2013-02-07 06:35:00,33.5,28.0,30.26,East,84,0.0,0.0,80,0.00,,SKC,0.00,VWS V14.01,2013-02-07 11:35:00,
2013-02-07 06:40:00,33.1,27.9,30.27,East,84,0.0,1.0,81,0.00,,SKC,0.00,VWS V14.01,2013-02-07 11:40:00,
2013-02-07 06:45:00,33.1,27.9,30.27,East,84,1.0,1.0,81,0.00,,SKC,0.00,VWS V14.01,2013-02-07 11:45:00,
2013-02-07 06:50:00,33.2,28.0,30.27,East,81,1.0,1.0,81,0.00,,SKC,0.00,VWS V14.01,2013-02-07 11:50:00,
2013-02-07 06:55:00,33.2,28.0,30.27,East,80,0.0,1.0,81,0.00,,SKC,0.00,VWS V14.01,2013-02-07 11:55:00,
2013-02-07 07:00:00,33.3,28.1,30.27,East,81,0.0,1.0,81,0.00,,SKC,0.00,VWS V14.01,2013-02-07 12:00:00,
2013-02-07 07:05:00,33.4,27.9,30.27,East,83,0.0,1.0,80,0.00,,SKC,0.00,VWS V14.01,2013-02-07 12:05:00,
2013-02-07 07:10:00,33.5,28.3,30.27,East,84,0.0,1.0,81,0.00,,SKC,0.00,VWS V14.01,2013-02-07 12:10:00,
2013-02-07 07:15:00,33.5,28.3,30.27,East,84,0.0,1.0,81,0.00,,SKC,0.00,VWS V14.01,2013-02-07 12:15:00,
2013-02-07 07:20:00,33.6,28.7,30.27,East,83,0.0,1.0,82,0.00,,SKC,0.00,VWS V14.01,2013-02-07 12:20:00,
2013-02-07 07:25:00,33.6,28.7,30.27,East,83,0.0,1.0,82,0.00,,SKC,0.00,VWS V14.01,2013-02-07 12:25:00,
2013-02-07 07:30:00,33.7,28.5,30.27,East,84,1.0,1.0,81,0.00,,SKC,0.00,VWS V14.01,2013-02-07 12:30:00,
2013-02-07 07:35:00,33.8,28.3,30.28,SSW,208,0.0,2.0,80,0.00,,SKC,0.00,VWS V14.01,2013-02-07 12:35:00,
2013-02-07 07:40:00,34.0,28.5,30.28,SSW,208,0.0,2.0,80,0.00,,SKC,0.00,VWS V14.01,2013-02-07 12:40:00,
2013-02-07 07:45:00,34.2,28.1,30.28,SSW,208,1.0,2.0,78,0.00,,SKC,0.00,VWS V14.01,2013-02-07 12:45:00,
2013-02-07 07:50:00,34.4,28.9,30.28,SSW,208,0.0,2.0,80,0.00,,SKC,0.00,VWS V14.01,2013-02-07 12:50:00,
2013-02-07 07:55:00,34.5,28.7,30.28,SSW,204,0.0,2.0,79,0.00,,SKC,0.00,VWS V14.01,2013-02-07 12:55:00,
2013-02-07 08:00:00,34.7,29.5,30.28,SSW,204,0.0,2.0,81,0.00,,SKC,0.00,VWS V14.01,2013-02-07 13:00:00,
2013-02-07 08:05:00,34.6,29.4,30.28,SE,141,0.0,1.0,81,0.00,,SKC,0.00,VWS V14.01,2013-02-07 13:05:00,
2013-02-07 08:12:00,34.7,29.2,30.28,SE,141,0.0,0.0,80,0.00,,SKC,0.00,VWS V14.01,2013-02-07 13:12:00,
2013-02-07 08:17:00,34.8,29.3,30.28,SE,141,0.0,0.0,80,0.00,,SKC,0.00,VWS V14.01,2013-02-07 13:17:00,
2013-02-07 08:22:00,35.3,28.8,30.28,SE,141,0.0,0.0,77,0.00,,SKC,0.00,VWS V14.01,2013-02-07 13:22:00,
2013-02-07 08:27:00,35.7,29.2,30.28,SE,141,0.0,1.0,77,0.00,,SKC,0.00,VWS V14.01,2013-02-07 13:27:00,
2013-02-07 08:30:00,39.7,30.7,30.27,SE,127,0.0,1.0,70,0.00,,SKC,0.00,VWS V14.01,2013-02-07 13:30:00,
2013-02-07 08:32:00,36.0,30.1,30.28,SE,141,0.0,0.0,79,0.00,,SKC,0.00,VWS V14.01,2013-02-07 13:32:00,
2013-02-07 08:37:00,36.3,30.1,30.28,SE,141,0.0,0.0,78,0.00,,SKC,0.00,VWS V14.01,2013-02-07 13:37:00,
2013-02-07 08:42:00,36.4,29.6,30.27,SE,141,0.0,0.0,76,0.00,,SKC,0.00,VWS V14.01,2013-02-07 13:42:00,
2013-02-07 08:47:00,36.7,30.8,30.28,SE,141,0.0,0.0,79,0.00,,SKC,0.00,VWS V14.01,2013-02-07 13:47:00,
2013-02-07 08:52:00,36.7,29.5,30.28,SSE,158,1.0,1.0,75,0.00,,SKC,0.00,VWS V14.01,2013-02-07 13:52:00,
2013-02-07 08:57:00,36.9,28.4,30.28,SSE,158,0.0,1.0,71,0.00,,SKC,0.00,VWS V14.01,2013-02-07 13:57:00,
2013-02-07 09:00:00,41.8,30.1,30.27,NNE,25,0.0,2.0,63,0.00,,SKC,0.00,VWS V14.01,2013-02-07 14:00:00,
2013-02-07 09:02:00,37.3,28.1,30.28,SSE,158,0.0,0.0,69,0.00,,SKC,0.00,VWS V14.01,2013-02-07 14:02:00,
2013-02-07 09:07:00,37.8,28.9,30.28,SSE,158,0.0,0.0,70,0.00,,SKC,0.00,VWS V14.01,2013-02-07 14:07:00,
2013-02-07 09:12:00,38.3,29.4,30.28,SSE,158,0.0,0.0,70,0.00,,SKC,0.00,VWS V14.01,2013-02-07 14:12:00,
2013-02-07 09:17:00,38.8,30.9,30.27,SSE,158,0.0,0.0,73,0.00,,SKC,0.00,VWS V14.01,2013-02-07 14:17:00,
2013-02-07 09:22:00,39.1,31.5,30.27,SSE,158,0.0,0.0,74,0.00,,SKC,0.00,VWS V14.01,2013-02-07 14:22:00,
2013-02-07 09:27:00,39.3,30.7,30.27,SE,131,1.0,1.0,71,0.00,,SKC,0.00,VWS V14.01,2013-02-07 14:27:00,
2013-02-07 09:30:00,43.8,30.0,30.25,NNW,342,1.0,3.0,58,0.00,,SKC,0.00,VWS V14.01,2013-02-07 14:30:00,
2013-02-07 09:32:00,39.8,30.8,30.27,SE,127,1.0,1.0,70,0.00,,SKC,0.00,VWS V14.01,2013-02-07 14:32:00,
2013-02-07 09:37:00,40.2,30.5,30.27,NNE,20,2.0,2.0,68,0.00,,SKC,0.00,VWS V14.01,2013-02-07 14:37:00,
2013-02-07 09:42:00,40.6,30.9,30.27,NNE,18,1.0,2.0,68,0.00,,SKC,0.00,VWS V14.01,2013-02-07 14:42:00,
2013-02-07 09:47:00,40.8,30.3,30.27,NNE,32,1.0,2.0,66,0.00,,SKC,0.00,VWS V14.01,2013-02-07 14:47:00,
2013-02-07 09:52:00,41.1,30.6,30.27,NNE,25,0.0,2.0,66,0.00,,SKC,0.00,VWS V14.01,2013-02-07 14:52:00,
2013-02-07 09:57:00,41.5,30.6,30.27,NNE,24,0.0,2.0,65,0.00,,SKC,0.00,VWS V14.01,2013-02-07 14:57:00,
2013-02-07 10:00:00,44.4,29.7,30.25,NNW,345,2.0,3.0,56,0.00,,SKC,0.00,VWS V14.01,2013-02-07 15:00:00,
2013-02-07 10:02:00,41.9,30.6,30.27,NNE,25,0.0,1.0,64,0.00,,SKC,0.00,VWS V14.01,2013-02-07 15:02:00,
2013-02-07 10:07:00,42.3,31.4,30.26,NE,37,1.0,1.0,65,0.00,,SKC,0.00,VWS V14.01,2013-02-07 15:07:00,
2013-02-07 10:12:00,42.6,30.1,30.26,NE,45,1.0,3.0,61,0.00,,SKC,0.00,VWS V14.01,2013-02-07 15:12:00,
2013-02-07 10:17:00,42.9,30.4,30.26,North,349,1.0,3.0,61,0.00,,SKC,0.00,VWS V14.01,2013-02-07 15:17:00,
2013-02-07 10:22:00,43.3,29.5,30.26,NNE,20,1.0,3.0,58,0.00,,SKC,0.00,VWS V14.01,2013-02-07 15:22:00,
2013-02-07 10:27:00,43.6,29.8,30.25,NE,51,1.0,3.0,58,0.00,,SKC,0.00,VWS V14.01,2013-02-07 15:27:00,
2013-02-07 10:30:00,44.5,30.2,30.23,NNE,33,1.0,3.0,57,0.00,,SKC,0.00,VWS V14.01,2013-02-07 15:30:00,
2013-02-07 10:32:00,43.9,30.1,30.25,NNW,342,1.0,1.0,58,0.00,,SKC,0.00,VWS V14.01,2013-02-07 15:32:00,
2013-02-07 10:37:00,44.0,29.8,30.25,North,1,0.0,1.0,57,0.00,,SKC,0.00,VWS V14.01,2013-02-07 15:37:00,
2013-02-07 10:42:00,44.2,29.5,30.25,NE,42,1.0,2.0,56,0.00,,SKC,0.00,VWS V14.01,2013-02-07 15:42:00,
2013-02-07 10:47:00,44.2,29.1,30.25,NE,55,0.0,2.0,55,0.00,,SKC,0.00,VWS V14.01,2013-02-07 15:47:00,
2013-02-07 10:52:00,44.4,30.6,30.24,East,81,0.0,2.0,58,0.00,,SKC,0.00,VWS V14.01,2013-02-07 15:52:00,
2013-02-07 10:57:00,44.5,29.8,30.24,NNW,345,2.0,2.0,56,0.00,,SKC,0.00,VWS V14.01,2013-02-07 15:57:00,
2013-02-07 11:00:00,45.7,30.5,30.22,NE,34,0.0,2.0,55,0.00,,SKC,0.00,VWS V14.01,2013-02-07 16:00:00,
2013-02-07 11:02:00,44.4,29.3,30.24,NE,56,3.0,3.0,55,0.00,,SKC,0.00,VWS V14.01,2013-02-07 16:02:00,
2013-02-07 11:06:00,44.3,29.2,30.24,ENE,60,1.0,3.0,55,0.00,,SKC,0.00,VWS V14.01,2013-02-07 16:06:00,
2013-02-07 11:11:00,44.3,29.6,30.24,ENE,60,2.0,3.0,56,0.00,,SKC,0.00,VWS V14.01,2013-02-07 16:11:00,
2013-02-07 11:16:00,44.3,30.5,30.24,North,355,1.0,3.0,58,0.00,,SKC,0.00,VWS V14.01,2013-02-07 16:16:00,
2013-02-07 11:21:00,44.3,30.0,30.24,NNE,32,1.0,3.0,57,0.00,,SKC,0.00,VWS V14.01,2013-02-07 16:21:00,
2013-02-07 11:26:00,44.3,30.0,30.24,NNE,33,0.0,3.0,57,0.00,,SKC,0.00,VWS V14.01,2013-02-07 16:26:00,
2013-02-07 11:30:00,47.1,30.9,30.20,SSW,200,0.0,5.0,53,0.00,,SKC,0.00,VWS V14.01,2013-02-07 16:30:00,
2013-02-07 11:31:00,44.5,29.4,30.23,NNE,32,0.0,2.0,55,0.00,,SKC,0.00,VWS V14.01,2013-02-07 16:31:00,
2013-02-07 11:36:00,44.5,29.4,30.23,NNE,32,0.0,2.0,55,0.00,,SKC,0.00,VWS V14.01,2013-02-07 16:36:00,
2013-02-07 11:41:00,44.8,30.1,30.23,NNE,33,0.0,2.0,56,0.00,,SKC,0.00,VWS V14.01,2013-02-07 16:41:00,
2013-02-07 11:46:00,45.2,30.5,30.22,NE,34,1.0,2.0,56,0.00,,SKC,0.00,VWS V14.01,2013-02-07 16:46:00,
2013-02-07 11:52:00,45.3,29.6,30.22,NE,34,1.0,2.0,54,0.00,,SKC,0.00,VWS V14.01,2013-02-07 16:52:00,
2013-02-07 11:57:00,45.5,30.3,30.22,NE,34,0.0,2.0,55,0.00,,SKC,0.00,VWS V14.01,2013-02-07 16:57:00,
2013-02-07 12:00:00,45.3,35.7,30.18,SW,229,0.0,6.0,69,0.00,,SKC,0.00,VWS V14.01,2013-02-07 17:00:00,
2013-02-07 12:02:00,45.7,30.5,30.21,SSE,152,0.0,1.0,55,0.00,,SKC,0.00,VWS V14.01,2013-02-07 17:02:00,
2013-02-07 12:07:00,46.1,30.4,30.21,SSE,152,1.0,1.0,54,0.00,,SKC,0.00,VWS V14.01,2013-02-07 17:07:00,
2013-02-07 12:12:00,46.5,30.8,30.20,SSE,152,0.0,1.0,54,0.00,,SKC,0.00,VWS V14.01,2013-02-07 17:12:00,
2013-02-07 12:17:00,46.7,31.0,30.20,SE,129,1.0,1.0,54,0.00,,SKC,0.00,VWS V14.01,2013-02-07 17:17:00,
2013-02-07 12:22:00,47.0,31.2,30.20,SSW,208,1.0,3.0,54,0.00,,SKC,0.00,VWS V14.01,2013-02-07 17:22:00,
2013-02-07 12:27:00,47.2,31.0,30.20,South,175,3.0,4.0,53,0.00,,SKC,0.00,VWS V14.01,2013-02-07 17:27:00,
2013-02-07 12:30:00,42.2,37.4,30.17,SW,219,4.0,5.0,83,0.01,,SKC,0.01,VWS V14.01,2013-02-07 17:30:00,
2013-02-07 12:32:00,47.2,31.4,30.20,SSW,212,3.0,4.0,54,0.00,,SKC,0.00,VWS V14.01,2013-02-07 17:32:00,
2013-02-07 12:37:00,47.2,32.3,30.19,SSE,163,2.0,5.0,56,0.00,,SKC,0.00,VWS V14.01,2013-02-07 17:37:00,
2013-02-07 12:42:00,47.0,33.0,30.19,SSW,205,2.0,5.0,58,0.00,,SKC,0.00,VWS V14.01,2013-02-07 17:42:00,
2013-02-07 12:47:00,46.6,33.5,30.19,SW,233,1.0,5.0,60,0.00,,SKC,0.00,VWS V14.01,2013-02-07 17:47:00,
2013-02-07 12:52:00,46.1,34.2,30.19,South,181,4.0,5.0,63,0.00,,SKC,0.00,VWS V14.01,2013-02-07 17:52:00,
2013-02-07 12:57:00,45.7,35.0,30.19,SW,227,2.0,6.0,66,0.00,,SKC,0.00,VWS V14.01,2013-02-07 17:57:00,
2013-02-07 13:00:00,41.9,38.3,30.17,South,186,2.0,5.0,87,0.03,,SKC,0.03,VWS V14.01,2013-02-07 18:00:00,
2013-02-07 13:02:00,45.3,35.7,30.18,SSW,192,2.0,2.0,69,0.00,,SKC,0.00,VWS V14.01,2013-02-07 18:02:00,
2013-02-07 13:07:00,44.6,35.8,30.18,SSW,210,3.0,4.0,71,0.00,,SKC,0.00,VWS V14.01,2013-02-07 18:07:00,
2013-02-07 13:12:00,43.9,35.8,30.18,South,180,3.0,5.0,73,0.00,,SKC,0.00,VWS V14.01,2013-02-07 18:12:00,
2013-02-07 13:16:00,43.3,36.3,30.18,South,173,2.0,5.0,76,0.01,,SKC,0.01,VWS V14.01,2013-02-07 18:16:00,
2013-02-07 13:22:00,42.9,36.8,30.17,SSW,200,2.0,5.0,79,0.01,,SKC,0.01,VWS V14.01,2013-02-07 18:22:00,
2013-02-07 13:27:00,42.5,37.1,30.17,SSW,200,3.0,5.0,81,0.01,,SKC,0.01,VWS V14.01,2013-02-07 18:27:00,
2013-02-07 13:30:00,41.3,38.6,30.17,SSW,199,1.0,4.0,90,0.07,,SKC,0.07,VWS V14.01,2013-02-07 18:30:00,
2013-02-07 13:32:00,42.2,37.4,30.17,SSW,201,2.0,4.0,83,0.01,,SKC,0.01,VWS V14.01,2013-02-07 18:32:00,
2013-02-07 13:37:00,42.1,37.6,30.17,South,179,3.0,4.0,84,0.02,,SKC,0.02,VWS V14.01,2013-02-07 18:37:00,
2013-02-07 13:42:00,42.1,37.6,30.17,South,191,2.0,5.0,84,0.02,,SKC,0.02,VWS V14.01,2013-02-07 18:42:00,
2013-02-07 13:47:00,42.1,37.9,30.17,SW,221,2.0,5.0,85,0.02,,SKC,0.02,VWS V14.01,2013-02-07 18:47:00,
2013-02-07 13:52:00,42.0,38.1,30.17,SSW,206,2.0,5.0,86,0.03,,SKC,0.03,VWS V14.01,2013-02-07 18:52:00,
2013-02-07 13:57:00,42.0,38.4,30.17,SW,226,1.0,5.0,87,0.03,,SKC,0.03,VWS V14.01,2013-02-07 18:57:00,
2013-02-07 14:00:00,41.2,39.3,30.16,SW,225,0.0,3.0,93,0.10,,SKC,0.11,VWS V14.01,2013-02-07 19:00:00,
2013-02-07 14:02:00,41.9,38.3,30.17,South,191,1.0,3.0,87,0.03,,SKC,0.03,VWS V14.01,2013-02-07 19:02:00,
2013-02-07 14:07:00,41.8,38.5,30.17,SSW,197,2.0,3.0,88,0.04,,SKC,0.04,VWS V14.01,2013-02-07 19:07:00,
2013-02-07 14:12:00,41.8,38.8,30.17,South,177,2.0,4.0,89,0.04,,SKC,0.04,VWS V14.01,2013-02-07 19:12:00,
2013-02-07 14:17:00,41.7,39.0,30.17,SSW,207,1.0,4.0,90,0.05,,SKC,0.05,VWS V14.01,2013-02-07 19:17:00,
2013-02-07 14:22:00,41.6,38.9,30.17,SSW,204,2.0,4.0,90,0.06,,SKC,0.06,VWS V14.01,2013-02-07 19:22:00,
2013-02-07 14:27:00,41.4,38.7,30.17,South,177,3.0,4.0,90,0.07,,SKC,0.07,VWS V14.01,2013-02-07 19:27:00,
2013-02-07 14:30:00,40.8,38.9,30.16,West,266,0.0,2.0,93,0.14,,SKC,0.17,VWS V14.01,2013-02-07 19:30:00,
2013-02-07 14:32:00,41.3,38.6,30.17,SSW,208,2.0,2.0,90,0.07,,SKC,0.08,VWS V14.01,2013-02-07 19:32:00,
2013-02-07 14:37:00,41.1,38.7,30.17,South,177,2.0,3.0,91,0.07,,SKC,0.08,VWS V14.01,2013-02-07 19:37:00,
2013-02-07 14:42:00,41.0,38.6,30.16,SSW,204,1.0,3.0,91,0.07,,SKC,0.08,VWS V14.01,2013-02-07 19:42:00,
2013-02-07 14:47:00,41.0,38.9,30.16,SW,221,1.0,3.0,92,0.08,,SKC,0.09,VWS V14.01,2013-02-07 19:47:00,
2013-02-07 14:52:00,41.0,38.9,30.16,SW,225,0.0,3.0,92,0.09,,SKC,0.10,VWS V14.01,2013-02-07 19:52:00,
2013-02-07 14:57:00,41.1,39.2,30.16,SW,225,0.0,3.0,93,0.10,,SKC,0.11,VWS V14.01,2013-02-07 19:57:00,
2013-02-07 15:00:00,40.1,38.2,30.15,East,101,0.0,4.0,93,0.15,,SKC,0.22,VWS V14.01,2013-02-07 20:00:00,
2013-02-07 15:02:00,41.2,39.3,30.16,SW,225,0.0,0.0,93,0.08,,SKC,0.11,VWS V14.01,2013-02-07 20:02:00,
2013-02-07 15:07:00,41.3,39.4,30.16,SSE,158,0.0,1.0,93,0.09,,SKC,0.12,VWS V14.01,2013-02-07 20:07:00,
2013-02-07 15:12:00,41.2,39.1,30.16,ESE,116,0.0,1.0,92,0.10,,SKC,0.13,VWS V14.01,2013-02-07 20:12:00,
2013-02-07 15:17:00,41.2,39.1,30.16,SSE,162,0.0,2.0,92,0.11,,SKC,0.14,VWS V14.01,2013-02-07 20:17:00,
2013-02-07 15:22:00,41.1,39.0,30.16,WNW,284,0.0,2.0,92,0.13,,SKC,0.16,VWS V14.01,2013-02-07 20:22:00,
2013-02-07 15:27:00,40.9,39.0,30.16,WNW,284,0.0,2.0,93,0.14,,SKC,0.17,VWS V14.01,2013-02-07 20:27:00,
2013-02-07 15:30:00,39.9,38.3,30.14,West,273,1.0,3.0,94,0.15,,SKC,0.26,VWS V14.01,2013-02-07 20:30:00,
2013-02-07 15:32:00,40.8,38.9,30.16,West,266,0.0,0.0,93,0.10,,SKC,0.17,VWS V14.01,2013-02-07 20:32:00,
2013-02-07 15:37:00,40.7,38.8,30.16,WNW,302,0.0,2.0,93,0.11,,SKC,0.18,VWS V14.01,2013-02-07 20:37:00,
2013-02-07 15:42:00,40.5,38.6,30.16,SSW,207,0.0,2.0,93,0.11,,SKC,0.18,VWS V14.01,2013-02-07 20:42:00,
2013-02-07 15:47:00,40.4,38.5,30.15,South,188,0.0,2.0,93,0.13,,SKC,0.20,VWS V14.01,2013-02-07 20:47:00,
2013-02-07 15:52:00,40.3,38.4,30.15,SSW,200,0.0,4.0,93,0.13,,SKC,0.20,VWS V14.01,2013-02-07 20:52:00,
2013-02-07 15:57:00,40.3,38.7,30.15,SW,229,2.0,4.0,94,0.14,,SKC,0.21,VWS V14.01,2013-02-07 20:57:00,
2013-02-07 16:00:00,39.8,38.5,30.13,NNW,348,0.0,2.0,95,0.11,,SKC,0.28,VWS V14.01,2013-02-07 21:00:00,
2013-02-07 16:02:00,40.1,38.5,30.15,North,360,1.0,1.0,94,0.11,,SKC,0.22,VWS V14.01,2013-02-07 21:02:00,
2013-02-07 16:07:00,40.0,38.4,30.15,ENE,67,2.0,2.0,94,0.12,,SKC,0.23,VWS V14.01,2013-02-07 21:07:00,
2013-02-07 16:12:00,39.9,38.3,30.15,ENE,67,0.0,2.0,94,0.13,,SKC,0.24,VWS V14.01,2013-02-07 21:12:00,
2013-02-07 16:17:00,39.9,38.3,30.15,ENE,67,1.0,2.0,94,0.14,,SKC,0.25,VWS V14.01,2013-02-07 21:17:00,
2013-02-07 16:22:00,39.8,38.2,30.15,ENE,67,0.0,2.0,94,0.14,,SKC,0.25,VWS V14.01,2013-02-07 21:22:00,
2013-02-07 16:27:00,39.9,38.3,30.14,SSW,194,3.0,3.0,94,0.15,,SKC,0.26,VWS V14.01,2013-02-07 21:27:00,
2013-02-07 16:30:00,39.7,38.4,30.13,NNW,348,0.0,1.0,95,0.10,,SKC,0.32,VWS V14.01,2013-02-07 21:30:00,
2013-02-07 16:32:00,39.9,38.3,30.14,West,264,0.0,1.0,94,0.09,,SKC,0.26,VWS V14.01,2013-02-07 21:32:00,
2013-02-07 16:36:00,39.9,38.3,30.14,East,83,1.0,2.0,94,0.09,,SKC,0.26,VWS V14.01,2013-02-07 21:36:00,
2013-02-07 16:41:00,40.0,38.4,30.14,East,84,0.0,2.0,94,0.09,,SKC,0.26,VWS V14.01,2013-02-07 21:41:00,
2013-02-07 16:46:00,39.9,38.3,30.14,NE,53,2.0,2.0,94,0.10,,SKC,0.27,VWS V14.01,2013-02-07 21:46:00,
2013-02-07 16:52:00,39.8,38.5,30.14,NNW,347,0.0,2.0,95,0.10,,SKC,0.27,VWS V14.01,2013-02-07 21:52:00,
2013-02-07 16:57:00,39.8,38.5,30.13,NNW,347,1.0,2.0,95,0.10,,SKC,0.27,VWS V14.01,2013-02-07 21:57:00,
2013-02-07 17:00:00,39.6,38.6,30.12,North,356,1.0,1.0,96,0.09,,SKC,0.35,VWS V14.01,2013-02-07 22:00:00,
2013-02-07 17:02:00,39.9,38.6,30.13,NNW,348,0.0,0.0,95,0.06,,SKC,0.28,VWS V14.01,2013-02-07 22:02:00,
2013-02-07 17:06:00,39.8,38.5,30.13,North,349,0.0,1.0,95,0.07,,SKC,0.29,VWS V14.01,2013-02-07 22:06:00,
2013-02-07 17:12:00,39.8,38.5,30.13,North,349,1.0,1.0,95,0.07,,SKC,0.29,VWS V14.01,2013-02-07 22:12:00,
2013-02-07 17:17:00,39.8,38.5,30.13,NNW,348,0.0,1.0,95,0.08,,SKC,0.30,VWS V14.01,2013-02-07 22:17:00,
2013-02-07 17:22:00,39.8,38.5,30.13,NNW,348,0.0,1.0,95,0.08,,SKC,0.30,VWS V14.01,2013-02-07 22:22:00,
2013-02-07 17:27:00,39.7,38.4,30.13,North,349,0.0,1.0,95,0.09,,SKC,0.31,VWS V14.01,2013-02-07 22:27:00,
2013-02-07 17:30:00,39.5,38.5,30.11,North,356,0.0,1.0,96,0.10,,SKC,0.38,VWS V14.01,2013-02-07 22:30:00,
2013-02-07 17:32:00,39.7,38.4,30.13,NNW,348,0.0,0.0,95,0.06,,SKC,0.32,VWS V14.01,2013-02-07 22:32:00,
2013-02-07 17:37:00,39.7,38.4,30.13,NNW,348,0.0,0.0,95,0.06,,SKC,0.32,VWS V14.01,2013-02-07 22:37:00,
2013-02-07 17:42:00,39.7,38.7,30.13,NNW,348,0.0,0.0,96,0.07,,SKC,0.33,VWS V14.01,2013-02-07 22:42:00,
2013-02-07 17:47:00,39.6,38.6,30.12,NNW,348,0.0,0.0,96,0.08,,SKC,0.34,VWS V14.01,2013-02-07 22:47:00,
2013-02-07 17:52:00,39.6,38.6,30.12,NNW,348,0.0,0.0,96,0.08,,SKC,0.34,VWS V14.01,2013-02-07 22:52:00,
2013-02-07 17:57:00,39.6,38.6,30.12,North,356,0.0,1.0,96,0.09,,SKC,0.35,VWS V14.01,2013-02-07 22:57:00,
2013-02-07 18:00:00,39.5,38.5,30.11,North,356,0.0,1.0,96,0.07,,SKC,0.39,VWS V14.01,2013-02-07 23:00:00,
2013-02-07 18:02:00,39.6,38.6,30.12,North,356,0.0,1.0,96,0.07,,SKC,0.35,VWS V14.01,2013-02-07 23:02:00,
2013-02-07 18:07:00,39.6,38.6,30.12,North,356,0.0,1.0,96,0.08,,SKC,0.36,VWS V14.01,2013-02-07 23:07:00,
2013-02-07 18:12:00,39.6,38.6,30.12,North,356,0.0,1.0,96,0.08,,SKC,0.36,VWS V14.01,2013-02-07 23:12:00,
2013-02-07 18:17:00,39.6,38.6,30.12,North,356,0.0,1.0,96,0.09,,SKC,0.37,VWS V14.01,2013-02-07 23:17:00,
2013-02-07 18:22:00,39.6,38.6,30.12,North,356,0.0,1.0,96,0.09,,SKC,0.37,VWS V14.01,2013-02-07 23:22:00,
2013-02-07 18:27:00,39.5,38.5,30.11,North,356,0.0,1.0,96,0.10,,SKC,0.38,VWS V14.01,2013-02-07 23:27:00,
2013-02-07 18:30:00,39.6,38.8,30.11,North,356,0.0,1.0,97,0.06,,SKC,0.41,VWS V14.01,2013-02-07 23:30:00,
2013-02-07 18:32:00,39.5,38.5,30.11,North,357,0.0,0.0,96,0.06,,SKC,0.38,VWS V14.01,2013-02-07 23:32:00,
2013-02-07 18:36:00,39.6,38.6,30.11,North,356,0.0,0.0,96,0.06,,SKC,0.38,VWS V14.01,2013-02-07 23:36:00,
2013-02-07 18:42:00,39.6,38.6,30.11,North,356,0.0,0.0,96,0.06,,SKC,0.38,VWS V14.01,2013-02-07 23:42:00,
2013-02-07 18:47:00,39.6,38.6,30.11,North,356,0.0,1.0,96,0.06,,SKC,0.38,VWS V14.01,2013-02-07 23:47:00,
2013-02-07 18:52:00,39.5,38.5,30.11,North,356,1.0,1.0,96,0.07,,SKC,0.39,VWS V14.01,2013-02-07 23:52:00,
2013-02-07 18:57:00,39.5,38.5,30.11,North,356,0.0,1.0,96,0.07,,SKC,0.39,VWS V14.01,2013-02-07 23:57:00,
2013-02-07 19:00:00,39.6,38.8,30.10,North,357,0.0,1.0,97,0.05,,SKC,0.43,VWS V14.01,2013-02-08 00:00:00,
2013-02-07 19:02:00,39.5,38.5,30.11,North,356,1.0,1.0,96,0.04,,SKC,0.39,VWS V14.01,2013-02-08 00:02:00,
2013-02-07 19:06:00,39.5,38.5,30.11,North,357,0.0,1.0,96,0.05,,SKC,0.40,VWS V14.01,2013-02-08 00:06:00,
2013-02-07 19:12:00,39.5,38.5,30.11,North,357,0.0,1.0,96,0.05,,SKC,0.40,VWS V14.01,2013-02-08 00:12:00,
2013-02-07 19:17:00,39.5,38.7,30.11,North,357,1.0,1.0,97,0.05,,SKC,0.40,VWS V14.01,2013-02-08 00:17:00,
2013-02-07 19:21:00,39.5,38.7,30.11,North,356,0.0,1.0,97,0.06,,SKC,0.41,VWS V14.01,2013-02-08 00:21:00,
2013-02-07 19:26:00,39.5,38.7,30.11,North,357,0.0,1.0,97,0.06,,SKC,0.41,VWS V14.01,2013-02-08 00:26:00,
2013-02-07 19:30:00,39.5,38.7,30.10,North,356,0.0,1.0,97,0.05,,SKC,0.44,VWS V14.01,2013-02-08 00:30:00,
2013-02-07 19:31:00,39.6,38.8,30.11,North,356,0.0,0.0,97,0.03,,SKC,0.41,VWS V14.01,2013-02-08 00:31:00,
2013-02-07 19:36:00,39.6,38.8,30.11,North,357,0.0,0.0,97,0.04,,SKC,0.42,VWS V14.01,2013-02-08 00:36:00,
2013-02-07 19:41:00,39.6,38.8,30.11,North,357,0.0,1.0,97,0.04,,SKC,0.42,VWS V14.01,2013-02-08 00:41:00,
2013-02-07 19:46:00,39.6,38.8,30.11,North,357,0.0,1.0,97,0.04,,SKC,0.42,VWS V14.01,2013-02-08 00:46:00,
2013-02-07 19:51:00,39.6,38.8,30.10,North,357,0.0,1.0,97,0.05,,SKC,0.43,VWS V14.01,2013-02-08 00:51:00,
2013-02-07 19:56:00,39.6,38.8,30.10,North,356,0.0,1.0,97,0.05,,SKC,0.43,VWS V14.01,2013-02-08 00:56:00,
2013-02-07 20:00:00,39.6,38.8,30.09,North,356,0.0,1.0,97,0.03,,SKC,0.44,VWS V14.01,2013-02-08 01:00:00,
2013-02-07 20:01:00,39.6,38.8,30.10,North,357,0.0,0.0,97,0.04,,SKC,0.43,VWS V14.01,2013-02-08 01:01:00,
2013-02-07 20:06:00,39.6,38.8,30.10,North,357,0.0,0.0,97,0.04,,SKC,0.43,VWS V14.01,2013-02-08 01:06:00,
2013-02-07 20:11:00,39.6,38.8,30.10,North,356,0.0,0.0,97,0.05,,SKC,0.44,VWS V14.01,2013-02-08 01:11:00,
2013-02-07 20:16:00,39.5,38.7,30.10,North,357,0.0,0.0,97,0.05,,SKC,0.44,VWS V14.01,2013-02-08 01:16:00,
2013-02-07 20:21:00,39.5,38.7,30.10,North,356,0.0,1.0,97,0.05,,SKC,0.44,VWS V14.01,2013-02-08 01:21:00,
2013-02-07 20:26:00,39.5,38.7,30.10,North,356,0.0,1.0,97,0.05,,SKC,0.44,VWS V14.01,2013-02-08 01:26:00,
2013-02-07 20:30:00,39.6,38.8,30.09,North,359,1.0,1.0,97,0.01,,SKC,0.44,VWS V14.01,2013-02-08 01:30:00,
2013-02-07 20:31:00,39.5,38.7,30.10,North,357,0.0,0.0,97,0.03,,SKC,0.44,VWS V14.01,2013-02-08 01:31:00,
2013-02-07 20:36:00,39.5,38.7,30.10,North,356,0.0,0.0,97,0.03,,SKC,0.44,VWS V14.01,2013-02-08 01:36:00,
2013-02-07 20:41:00,39.6,38.8,30.10,North,356,0.0,0.0,97,0.03,,SKC,0.44,VWS V14.01,2013-02-08 01:41:00,
2013-02-07 20:46:00,39.5,38.7,30.10,North,357,0.0,0.0,97,0.03,,SKC,0.44,VWS V14.01,2013-02-08 01:46:00,
2013-02-07 20:51:00,39.6,38.8,30.10,North,357,0.0,0.0,97,0.03,,SKC,0.44,VWS V14.01,2013-02-08 01:51:00,
2013-02-07 20:56:00,39.6,38.8,30.10,North,357,0.0,1.0,97,0.03,,SKC,0.44,VWS V14.01,2013-02-08 01:56:00,
2013-02-07 21:00:00,39.7,38.9,30.08,ENE,68,0.0,1.0,97,0.00,,SKC,0.44,VWS V14.01,2013-02-08 02:00:00,
2013-02-07 21:01:00,39.6,38.8,30.09,North,356,0.0,0.0,97,0.01,,SKC,0.44,VWS V14.01,2013-02-08 02:01:00,
2013-02-07 21:06:00,39.6,38.8,30.09,North,358,1.0,1.0,97,0.01,,SKC,0.44,VWS V14.01,2013-02-08 02:06:00,
2013-02-07 21:11:00,39.6,38.8,30.09,North,359,0.0,1.0,97,0.01,,SKC,0.44,VWS V14.01,2013-02-08 02:11:00,
2013-02-07 21:16:00,39.6,38.8,30.09,North,359,0.0,1.0,97,0.01,,SKC,0.44,VWS V14.01,2013-02-08 02:16:00,
2013-02-07 21:21:00,39.6,38.8,30.09,North,358,0.0,1.0,97,0.01,,SKC,0.44,VWS V14.01,2013-02-08 02:21:00,
2013-02-07 21:26:00,39.6,38.8,30.09,North,359,1.0,1.0,97,0.01,,SKC,0.44,VWS V14.01,2013-02-08 02:26:00,
2013-02-07 21:30:00,39.6,38.8,30.07,ENE,62,0.0,2.0,97,0.00,,SKC,0.44,VWS V14.01,2013-02-08 02:30:00,
2013-02-07 21:31:00,39.6,38.8,30.09,North,359,1.0,1.0,97,0.00,,SKC,0.44,VWS V14.01,2013-02-08 02:31:00,
2013-02-07 21:36:00,39.6,38.8,30.09,North,359,0.0,1.0,97,0.00,,SKC,0.44,VWS V14.01,2013-02-08 02:36:00,
2013-02-07 21:41:00,39.6,38.8,30.09,NNE,17,1.0,1.0,97,0.00,,SKC,0.44,VWS V14.01,2013-02-08 02:41:00,
2013-02-07 21:46:00,39.6,38.8,30.08,ENE,68,0.0,1.0,97,0.00,,SKC,0.44,VWS V14.01,2013-02-08 02:46:00,
2013-02-07 21:51:00,39.6,38.8,30.08,ENE,68,0.0,1.0,97,0.00,,SKC,0.44,VWS V14.01,2013-02-08 02:51:00,
2013-02-07 21:56:00,39.6,38.8,30.08,ENE,68,0.0,1.0,97,0.00,,SKC,0.44,VWS V14.01,2013-02-08 02:56:00,
2013-02-07 22:00:00,39.5,38.7,30.06,ENE,63,0.0,1.0,97,0.00,,SKC,0.44,VWS V14.01,2013-02-08 03:00:00,
2013-02-07 22:01:00,39.6,38.8,30.08,ENE,68,0.0,0.0,97,0.00,,SKC,0.44,VWS V14.01,2013-02-08 03:01:00,
2013-02-07 22:06:00,39.7,38.9,30.08,ENE,60,1.0,2.0,97,0.00,,SKC,0.44,VWS V14.01,2013-02-08 03:06:00,
2013-02-07 22:11:00,39.6,38.8,30.08,ENE,62,0.0,2.0,97,0.00,,SKC,0.44,VWS V14.01,2013-02-08 03:11:00,
2013-02-07 22:16:00,39.7,38.9,30.08,ENE,62,1.0,2.0,97,0.00,,SKC,0.44,VWS V14.01,2013-02-08 03:16:00,
2013-02-07 22:21:00,39.7,38.9,30.07,ENE,63,1.0,2.0,97,0.00,,SKC,0.44,VWS V14.01,2013-02-08 03:21:00,
2013-02-07 22:26:00,39.7,38.9,30.07,ENE,63,0.0,2.0,97,0.00,,SKC,0.44,VWS V14.01,2013-02-08 03:26:00,
2013-02-07 22:30:00,39.0,38.2,30.05,ENE,62,0.0,1.0,97,0.00,,SKC,0.44,VWS V14.01,2013-02-08 03:30:00,
2013-02-07 22:31:00,39.6,38.8,30.07,ENE,62,0.0,0.0,97,0.00,,SKC,0.44,VWS V14.01,2013-02-08 03:31:00,
2013-02-07 22:36:00,39.6,38.8,30.07,ENE,63,0.0,0.0,97,0.00,,SKC,0.44,VWS V14.01,2013-02-08 03:36:00,
2013-02-07 22:41:00,39.6,38.8,30.07,ENE,62,1.0,1.0,97,0.00,,SKC,0.44,VWS V14.01,2013-02-08 03:41:00,
2013-02-07 22:46:00,39.6,38.8,30.07,ENE,62,0.0,1.0,97,0.00,,SKC,0.44,VWS V14.01,2013-02-08 03:46:00,
2013-02-07 22:51:00,39.5,38.7,30.06,ENE,63,0.0,1.0,97,0.00,,SKC,0.44,VWS V14.01,2013-02-08 03:51:00,
2013-02-07 22:56:00,39.5,38.7,30.06,ENE,63,0.0,1.0,97,0.00,,SKC,0.44,VWS V14.01,2013-02-08 03:56:00,
2013-02-07 23:00:00,38.8,38.0,30.05,ENE,62,0.0,1.0,97,0.00,,SKC,0.00,VWS V14.01,2013-02-08 04:00:00,
2013-02-07 23:01:00,39.5,38.7,30.06,ENE,62,0.0,0.0,97,0.00,,SKC,0.44,VWS V14.01,2013-02-08 04:01:00,
2013-02-07 23:06:00,39.5,38.7,30.06,ENE,62,0.0,0.0,97,0.00,,SKC,0.44,VWS V14.01,2013-02-08 04:06:00,
2013-02-07 23:11:00,39.4,38.6,30.06,ENE,62,0.0,1.0,97,0.00,,SKC,0.44,VWS V14.01,2013-02-08 04:11:00,
2013-02-07 23:16:00,39.3,38.5,30.06,ENE,63,0.0,1.0,97,0.00,,SKC,0.44,VWS V14.01,2013-02-08 04:16:00,
2013-02-07 23:21:00,39.2,38.4,30.06,ENE,62,0.0,1.0,97,0.00,,SKC,0.44,VWS V14.01,2013-02-08 04:21:00,
2013-02-07 23:26:00,39.1,38.3,30.06,ENE,63,0.0,1.0,97,0.00,,SKC,0.44,VWS V14.01,2013-02-08 04:26:00,
2013-02-07 23:30:00,38.9,38.1,30.03,ENE,62,0.0,2.0,97,0.00,,SKC,0.00,VWS V14.01,2013-02-08 04:30:00,
2013-02-07 23:31:00,39.0,38.2,30.05,ENE,62,0.0,0.0,97,0.00,,SKC,0.44,VWS V14.01,2013-02-08 04:31:00,
2013-02-07 23:36:00,38.9,38.1,30.05,ENE,62,0.0,1.0,97,0.00,,SKC,0.44,VWS V14.01,2013-02-08 04:36:00,
2013-02-07 23:41:00,38.9,38.1,30.05,ENE,62,0.0,1.0,97,0.00,,SKC,0.44,VWS V14.01,2013-02-08 04:41:00,
2013-02-07 23:46:00,38.9,38.1,30.05,ENE,62,0.0,1.0,97,0.00,,SKC,0.44,VWS V14.01,2013-02-08 04:46:00,
2013-02-07 23:51:00,38.8,38.0,30.05,ENE,63,0.0,1.0,97,0.00,,SKC,0.44,VWS V14.01,2013-02-08 04:51:00,
2013-02-07 23:56:00,38.8,38.0,30.05,ENE,63,0.0,1.0,97,0.00,,SKC,0.44,VWS V14.01,2013-02-08 04:56:00,